CW1621 Weather Reports


Display with metric or nautical units.
time (UTC)temp
F
wind
direction
speed
MPH
gust
MPH
rain 1hr
in
rain 24hr
in
rain mn
in
humidity
%
barometer
mb
20260509105104 46 262 0.0 0.0 0.00 0.00 0.00 63 1021.6
20260509104604 45 262 0.0 0.0 0.00 0.00 0.00 63 1021.7
20260509104108 45 262 0.0 1.0 0.00 0.00 0.00 64 1021.8
20260509103103 44 262 0.0 0.0 0.00 0.00 0.00 65 1021.7
20260509102604 44 262 0.0 1.0 0.00 0.00 0.00 65 1021.7
20260509102103 44 262 1.0 3.0 0.00 0.00 0.00 66 1021.6
20260509101604 43 262 2.0 3.0 0.00 0.00 0.00 67 1021.7
20260509101104 44 262 2.0 3.0 0.00 0.00 0.00 67 1021.5
20260509100603 44 262 2.0 3.0 0.00 0.00 0.00 66 1021.4
20260509095603 44 262 3.0 3.0 0.00 0.00 0.00 66 1021.3
20260509095104 44 262 2.0 3.0 0.00 0.00 0.00 65 1021.2
20260509094603 44 262 3.0 5.0 0.00 0.00 0.00 65 1021.1
20260509094104 46 262 3.0 5.0 0.00 0.00 0.00 62 1020.9
20260509093604 47 262 4.0 5.0 0.00 0.00 0.00 60 1020.6
20260509093103 48 263 4.0 7.0 0.00 0.00 0.00 58 1020.6
20260509092604 48 263 6.0 9.0 0.00 0.00 0.00 57 1020.6
20260509092104 48 272 6.0 12.0 0.00 0.00 0.00 57 1020.6
20260509091603 49 266 6.0 7.0 0.00 0.00 0.00 57 1020.3
20260509091104 49 269 6.0 10.0 0.00 0.00 0.00 56 1020.2
20260509090603 50 268 7.0 12.0 0.00 0.00 0.00 55 1020.2
20260509090104 50 272 9.0 14.0 0.00 0.00 0.00 54 1020.2
20260509085604 50 280 11.0 14.0 0.00 0.00 0.00 53 1020.1
20260509085104 50 283 9.0 12.0 0.00 0.00 0.00 53 1020.0
20260509084604 51 285 9.0 16.0 0.00 0.00 0.00 52 1019.7
20260509083104 51 286 10.0 13.0 0.00 0.00 0.00 52 1019.6
20260509082603 51 287 11.0 20.0 0.00 0.00 0.00 51 1019.5
20260509082105 51 293 10.0 16.0 0.00 0.00 0.00 51 1019.6
20260509081604 52 287 12.0 15.0 0.00 0.00 0.00 51 1019.6
20260509080604 52 289 12.0 20.0 0.00 0.00 0.00 50 1020.1
20260509080104 52 284 12.0 20.0 0.00 0.00 0.00 50 1020.0
20260509075104 52 286 13.0 17.0 0.00 0.00 0.00 50 1020.0
20260509074604 52 284 10.0 15.0 0.00 0.00 0.00 50 1020.0
20260509074104 53 285 10.0 15.0 0.00 0.00 0.00 50 1019.7
20260509073603 53 285 11.0 18.0 0.00 0.00 0.00 50 1019.6
20260509073103 53 284 11.0 17.0 0.00 0.00 0.00 50 1019.6
20260509072103 53 284 12.0 18.0 0.00 0.00 0.00 49 1019.4
20260509071603 52 281 10.0 15.0 0.00 0.00 0.00 50 1019.5
20260509071105 52 280 10.0 13.0 0.00 0.00 0.00 49 1019.5
20260509070603 52 283 9.0 13.0 0.00 0.00 0.00 49 1019.6
20260509070104 53 290 8.0 12.0 0.00 0.00 0.00 49 1019.6
20260509065604 53 288 9.0 12.0 0.00 0.00 0.00 48 1019.5
20260509065104 53 292 8.0 13.0 0.00 0.00 0.00 48 1019.3
20260509064603 54 287 8.0 12.0 0.00 0.00 0.00 48 1019.2
20260509063604 54 287 10.0 16.0 0.00 0.00 0.00 47 1019.2
20260509063103 54 290 12.0 17.0 0.00 0.00 0.00 46 1019.2
20260509062603 54 288 12.0 16.0 0.00 0.00 0.00 46 1019.2
20260509061104 55 290 10.0 16.0 0.00 0.00 0.00 45 1019.1
20260509060604 55 287 13.0 21.0 0.00 0.00 0.00 45 1019.0
20260509055604 54 286 11.0 14.0 0.00 0.00 0.00 45 1019.0
20260509055103 54 288 11.0 13.0 0.00 0.00 0.00 44 1019.0
20260509054603 54 291 10.0 13.0 0.00 0.00 0.00 44 1018.9
20260509054103 54 293 10.0 13.0 0.00 0.00 0.00 44 1018.8
20260509053103 55 297 10.0 16.0 0.00 0.00 0.00 42 1018.9
20260509052604 55 291 9.0 14.0 0.00 0.00 0.00 42 1018.9
20260509052103 54 288 7.0 13.0 0.00 0.00 0.00 43 1018.7
20260509051104 54 293 9.0 13.0 0.00 0.00 0.00 45 1018.6
20260509050604 53 292 9.0 12.0 0.00 0.00 0.00 45 1018.4
20260509045603 52 278 9.0 10.0 0.00 0.00 0.00 47 1018.7
20260509045104 51 279 8.0 10.0 0.00 0.00 0.00 48 1018.7
20260509044103 51 267 7.0 9.0 0.00 0.00 0.00 49 1018.7
20260509043604 51 267 7.0 8.0 0.00 0.00 0.00 48 1018.7
20260509043103 52 270 6.0 9.0 0.00 0.00 0.00 47 1018.6
20260509042604 53 271 9.0 10.0 0.00 0.00 0.00 43 1018.4
20260509042104 54 274 7.0 9.0 0.00 0.00 0.00 42 1018.4
20260509041604 53 267 7.0 9.0 0.00 0.00 0.00 44 1018.3
20260509041103 54 261 7.0 12.0 0.00 0.00 0.00 44 1018.4
20260509040604 55 275 7.0 12.0 0.00 0.00 0.00 42 1018.3
20260509035603 54 290 6.0 9.0 0.00 0.00 0.00 42 1018.3
20260509035103 54 288 6.0 7.0 0.00 0.00 0.00 43 1018.3
20260509034602 54 294 6.0 9.0 0.00 0.00 0.00 43 1018.2
20260509034102 54 294 6.0 9.0 0.00 0.00 0.00 43 1018.2
20260509033603 54 290 6.0 9.0 0.00 0.00 0.00 41 1018.1
20260509033103 54 290 7.0 9.0 0.00 0.00 0.00 41 1018.1
20260509032102 54 287 6.0 9.0 0.00 0.00 0.00 41 1017.9
20260509031102 55 286 5.0 7.0 0.00 0.00 0.00 39 1017.8
20260509030602 56 288 3.0 7.0 0.00 0.00 0.00 39 1017.7
20260509025603 56 286 2.0 3.0 0.00 0.00 0.00 40 1017.5
20260509025102 57 277 2.0 3.0 0.00 0.00 0.00 40 1017.2
20260509024602 57 22 1.0 3.0 0.00 0.00 0.00 40 1017.1
20260509024102 58 22 0.0 2.0 0.00 0.00 0.00 41 1017.1
20260509023603 58 22 0.0 3.0 0.00 0.00 0.00 40 1017.1
20260509023103 59 22 1.0 3.0 0.00 0.00 0.00 38 1016.9
20260509022603 60 22 1.0 3.0 0.00 0.00 0.00 38 1016.8
20260509021602 62 316 2.0 7.0 0.00 0.00 0.00 40 1016.4
20260509021103 62 338 3.0 6.0 0.00 0.00 0.00 41 1017.2
20260509020603 63 355 2.0 3.0 0.00 0.00 0.00 45 1017.2
20260509015602 62 285 2.0 5.0 0.00 0.00 0.00 45 1017.1
20260509015102 63 332 2.0 3.0 0.00 0.00 0.00 43 1017.2
20260509014602 62 322 2.0 5.0 0.00 0.00 0.00 45 1017.1
20260509014102 62 313 3.0 7.0 0.00 0.00 0.00 43 1017.2
20260509013103 63 282 3.0 6.0 0.00 0.00 0.00 43 1017.2
20260509012602 63 284 2.0 3.0 0.00 0.00 0.00 45 1017.2
20260509012102 63 285 2.0 3.0 0.00 0.00 0.00 44 1017.1
20260509011602 63 283 3.0 5.0 0.00 0.00 0.00 44 1017.2
20260509011102 63 289 2.0 5.0 0.00 0.00 0.00 43 1018.0
20260509010603 64 278 3.0 9.0 0.00 0.00 0.00 43 1018.3
20260509005602 64 293 6.0 12.0 0.00 0.00 0.00 42 1018.3
20260509005102 65 288 6.0 12.0 0.00 0.00 0.00 40 1018.0
20260509004602 65 295 3.0 8.0 0.00 0.00 0.00 40 1017.9
20260509004102 65 343 3.0 12.0 0.00 0.00 0.00 41 1018.0
20260509003602 66 280 7.0 12.0 0.00 0.00 0.00 39 1018.0
20260509003103 67 330 3.0 7.0 0.00 0.00 0.00 40 1017.8
20260509002603 66 339 2.0 7.0 0.00 0.00 0.00 41 1018.1
20260509002102 66 30 1.0 5.0 0.00 0.00 0.00 41 1018.0
20260509001603 66 310 4.0 7.0 0.00 0.00 0.00 41 1018.0
20260509001102 65 9 3.0 6.0 0.00 0.00 0.00 42 1017.9
20260509000603 64 339 3.0 7.0 0.00 0.00 0.00 42 1017.9
20260508235103 63 351 3.0 7.0 0.00 0.00 0.00 47 1018.1
20260508234602 62 346 2.0 5.0 0.00 0.00 0.00 48 1018.3
20260508234102 62 343 2.0 5.0 0.00 0.00 0.00 46 1018.3
20260508233602 62 313 2.0 6.0 0.00 0.00 0.00 47 1018.3
20260508233102 63 338 3.0 6.0 0.00 0.00 0.00 46 1018.1
20260508232603 63 334 3.0 7.0 0.00 0.00 0.00 45 1018.2
20260508232102 64 357 3.0 6.0 0.00 0.00 0.00 46 1018.1
20260508231603 64 338 3.0 7.0 0.00 0.00 0.00 45 1018.1
20260508231102 64 351 2.0 7.0 0.00 0.00 0.00 44 1018.0
20260508230602 64 6 2.0 7.0 0.00 0.00 0.00 45 1018.1
20260508225602 64 345 2.0 9.0 0.00 0.00 0.00 46 1018.1
20260508225102 64 354 3.0 7.0 0.00 0.00 0.00 46 1018.0
20260508224602 64 317 2.0 6.0 0.00 0.00 0.00 44 1018.0
20260508224102 65 11 3.0 8.0 0.00 0.00 0.00 43 1017.7
20260508223603 65 321 2.0 5.0 0.00 0.00 0.00 42 1017.7
20260508223103 66 334 3.0 6.0 0.00 0.00 0.00 44 1017.7
20260508222602 66 298 2.0 9.0 0.00 0.00 0.00 44 1017.8
20260508222102 65 328 3.0 6.0 0.00 0.00 0.00 44 1017.7
20260508221603 65 19 3.0 6.0 0.00 0.00 0.00 42 1017.7
20260508220603 64 307 3.0 5.0 0.00 0.00 0.00 45 1017.9
20260508215602 63 324 2.0 5.0 0.00 0.00 0.00 46 1018.1
20260508215103 63 317 2.0 5.0 0.00 0.00 0.00 47 1018.1
20260508214603 63 327 2.0 5.0 0.00 0.00 0.00 46 1018.1
20260508214103 62 333 1.0 7.0 0.00 0.00 0.00 44 1018.4
20260508213102 64 287 6.0 9.0 0.00 0.00 0.00 41 1018.1
20260508212604 65 271 5.0 7.0 0.00 0.00 0.00 39 1017.8
20260508212103 66 3 5.0 8.0 0.00 0.00 0.00 42 1017.8
20260508211102 64 328 2.0 12.0 0.00 0.00 0.00 45 1018.1
20260508205602 62 286 3.0 12.0 0.00 0.00 0.00 42 1018.6
20260508205103 62 296 3.0 9.0 0.00 0.00 0.00 44 1018.5
20260508204603 62 304 3.0 10.0 0.00 0.00 0.00 44 1018.5
20260508204102 61 290 5.0 12.0 0.00 0.00 0.00 44 1018.5
20260508203602 62 282 6.0 12.0 0.00 0.00 0.00 47 1018.4
20260508203103 61 284 3.0 12.0 0.00 0.00 0.00 48 1018.4
20260508202602 61 283 3.0 16.0 0.00 0.00 0.00 50 1018.4
20260508202102 61 281 5.0 17.0 0.00 0.00 0.00 46 1018.5
20260508201603 61 293 7.0 14.0 0.00 0.00 0.00 46 1018.5
20260508201102 61 294 5.0 14.0 0.00 0.00 0.00 48 1018.3
20260508200603 61 295 11.0 16.0 0.00 0.00 0.00 48 1018.1
20260508200104 61 290 7.0 13.0 0.00 0.00 0.00 48 1018.1
20260508195602 60 292 9.0 14.0 0.00 0.00 0.00 48 1018.1
20260508195103 60 321 7.0 14.0 0.00 0.00 0.00 48 1018.0
20260508194602 59 274 14.0 18.0 0.00 0.00 0.00 44 1018.4
20260508193603 59 288 8.0 13.0 0.00 0.00 0.00 48 1018.4
20260508193102 59 275 10.0 12.0 0.00 0.00 0.00 48 1018.3
20260508192602 59 286 11.0 14.0 0.00 0.00 0.00 49 1018.3
20260508192103 59 283 9.0 14.0 0.00 0.00 0.00 52 1018.3
20260508191602 59 270 11.0 15.0 0.00 0.00 0.00 49 1018.1
20260508191103 60 290 8.0 14.0 0.00 0.00 0.00 49 1018.1
20260508190602 60 294 10.0 14.0 0.00 0.00 0.00 50 1018.3
20260508185603 60 283 10.0 14.0 0.00 0.00 0.00 48 1018.3
20260508185103 60 292 9.0 14.0 0.00 0.00 0.00 49 1018.3
20260508184603 60 278 11.0 14.0 0.00 0.00 0.00 46 1018.3
20260508183602 59 279 11.0 14.0 0.00 0.00 0.00 46 1018.5
20260508183103 59 281 10.0 14.0 0.00 0.00 0.00 47 1018.5
20260508182604 59 281 13.0 15.0 0.00 0.00 0.00 44 1018.6
20260508182102 60 280 9.0 12.0 0.00 0.00 0.00 46 1018.3
20260508181602 60 273 10.0 14.0 0.00 0.00 0.00 44 1018.3
20260508181103 60 287 9.0 13.0 0.00 0.00 0.00 44 1018.4
20260508180603 60 283 10.0 14.0 0.00 0.00 0.00 45 1018.3
20260508180103 60 290 5.0 12.0 0.00 0.00 0.00 47 1018.4
20260508175602 60 286 9.0 13.0 0.00 0.00 0.00 45 1018.3
20260508175103 61 289 8.0 13.0 0.00 0.00 0.00 43 1018.0
20260508174602 62 285 8.0 12.0 0.00 0.00 0.00 44 1018.0
20260508174102 63 291 2.0 5.0 0.00 0.00 0.00 51 1017.6
20260508173602 63 340 2.0 3.0 0.00 0.00 0.00 50 1017.5
20260508173103 64 307 2.0 5.0 0.00 0.00 0.00 50 1017.5
20260508172102 63 341 2.0 3.0 0.00 0.00 0.00 53 1017.5
20260508170603 63 349 2.0 6.0 0.00 0.00 0.00 54 1017.2
20260508165603 62 327 3.0 6.0 0.00 0.00 0.00 54 1017.4
20260508164102 61 95 3.0 7.0 0.00 0.00 0.00 50 1017.5
20260508163103 61 106 3.0 5.0 0.00 0.00 0.00 53 1017.4
20260508162603 61 106 3.0 6.0 0.00 0.00 0.00 51 1017.4
20260508162103 62 74 2.0 3.0 0.00 0.00 0.00 51 1017.4
20260508161603 61 74 3.0 6.0 0.00 0.00 0.00 52 1017.4
20260508161103 62 74 3.0 5.0 0.00 0.00 0.00 50 1016.7
20260508160603 62 71 3.0 5.0 0.00 0.00 0.00 52 1016.5
20260508155602 63 37 1.0 3.0 0.00 0.00 0.00 50 1016.2
20260508155103 63 5 1.0 3.0 0.00 0.00 0.00 54 1016.3
20260508154602 63 5 1.0 3.0 0.00 0.00 0.00 55 1016.3
20260508153602 62 12 2.0 3.0 0.00 0.00 0.00 54 1016.6
20260508153103 61 28 2.0 3.0 0.00 0.00 0.00 56 1016.6
20260508152602 61 326 2.0 3.0 0.00 0.00 0.00 55 1016.5
20260508152102 61 341 1.0 3.0 0.00 0.00 0.00 53 1016.6
20260508151103 61 0 2.0 3.0 0.00 0.00 0.00 55 1016.5
20260508150602 60 0 1.0 3.0 0.00 0.00 0.00 56 1016.2
20260508150104 59 288 1.0 3.0 0.00 0.00 0.00 60 1016.5
20260508145604 58 217 2.0 3.0 0.00 0.00 0.00 57 1016.6
20260508145103 57 217 1.0 3.0 0.00 0.00 0.00 59 1016.9
20260508144602 56 217 3.0 3.0 0.00 0.00 0.00 55 1016.9
20260508144102 55 217 2.0 3.0 0.00 0.00 0.00 60 1017.0
20260508143603 55 217 2.0 3.0 0.00 0.00 0.00 67 1017.0
20260508143103 54 217 2.0 3.0 0.00 0.00 0.00 66 1017.1
20260508142604 53 217 2.0 3.0 0.00 0.00 0.00 68 1017.2
20260508142102 53 217 3.0 3.0 0.00 0.00 0.00 66 1017.3
20260508141602 52 217 3.0 5.0 0.00 0.00 0.00 67 1017.3
20260508140602 51 217 5.0 7.0 0.00 0.00 0.00 69 1016.7
20260508135602 49 227 3.0 3.0 0.00 0.00 0.00 77 1016.9
20260508135102 48 227 2.0 3.0 0.00 0.00 0.00 78 1017.0
20260508134603 47 227 2.0 3.0 0.00 0.00 0.00 76 1017.3
20260508134102 47 227 2.0 3.0 0.00 0.00 0.00 76 1017.2
20260508133603 46 227 2.0 3.0 0.00 0.00 0.00 75 1017.2
20260508133103 46 227 3.0 5.0 0.00 0.00 0.00 75 1017.1
20260508132603 45 227 3.0 5.0 0.00 0.00 0.00 76 1017.3
20260508132102 44 227 3.0 5.0 0.00 0.00 0.00 77 1017.3
20260508131603 43 226 2.0 3.0 0.00 0.00 0.00 80 1017.6
20260508131103 43 226 3.0 3.0 0.00 0.00 0.00 80 1017.4
20260508130603 43 226 2.0 3.0 0.00 0.00 0.00 79 1017.1
20260508125602 43 226 3.0 3.0 0.00 0.00 0.00 81 1017.0
20260508124603 42 226 3.0 3.0 0.00 0.00 0.00 84 1017.1
20260508124103 42 227 5.0 6.0 0.00 0.00 0.00 84 1017.1
20260508123603 42 214 5.0 6.0 0.00 0.00 0.00 83 1016.8
20260508122602 43 213 3.0 3.0 0.00 0.00 0.00 83 1016.9
20260508122102 44 213 3.0 5.0 0.00 0.00 0.00 82 1016.9
20260508121603 44 213 4.0 6.0 0.00 0.00 0.00 82 1016.8
20260508121102 45 213 4.0 7.0 0.00 0.00 0.00 81 1016.7
20260508120603 46 201 5.0 8.0 0.00 0.00 0.00 80 1016.4
20260508115603 45 203 5.0 8.0 0.00 0.00 0.00 83 1016.6
20260508114603 45 192 6.0 8.0 0.00 0.00 0.00 82 1016.6
20260508114102 45 209 5.0 6.0 0.00 0.00 0.00 82 1016.7
20260508113602 45 210 5.0 5.0 0.00 0.00 0.00 81 1016.6
20260508113103 46 210 2.0 3.0 0.00 0.00 0.00 80 1016.5
20260508112602 46 210 3.0 3.0 0.00 0.00 0.00 80 1016.5
20260508112104 46 210 3.0 3.0 0.00 0.00 0.00 82 1016.6
20260508111603 45 210 2.0 3.0 0.00 0.00 0.00 82 1016.7
20260508111103 45 210 2.0 3.0 0.00 0.00 0.00 82 1016.6
20260508110603 45 210 4.0 5.0 0.00 0.00 0.00 80 1016.5
20260508105603 46 209 1.0 3.0 0.00 0.00 0.00 81 1016.5